H-2A DEB, 43371

Orbit data source: Space-Track

H-2A DEB, 43371 is space debris in LEO originally from a launch on Mon, 04 Feb 2002 UTC launched from the Tanegashima Space Center (TNSTA). Debris objects in space refer to the collection of defunct objects orbiting the Earth. Examples of debris include non-operational satellites, rocket bodies, and fragments generated from explosions, collisions, or faulty payload assembly.

Not visible in the next 10 days
Identifier
43371, 2002-003F
Orbit
LEO
Country
Flag of JPJP / JPN
Related business
Manufacturer
Unknown
Mission
Spacecraft
Bus & Motor
Unknown
Mass
Unknown
Launch date (UTC)
2002-02-04 (24 years ago)
Launch vehicle
Unknown
Launch site
Tanegashima Space Center (TNSTA)
Object type
Payload
Rocket body
Debris
Shape & HBR
Unknown shape, 0.1 m
Radar Cross Section
Small (<0.1 m²)

Expand to show TLE details & history
Last TLE update: 2 weeks ago

TLE from 2 weeks ago
0 H-2A DEB
1 43371U 02003F   25337.79325306  .02533631  63066-3  28985-1 0  9998
2 43371  28.8033 144.6210 1568203 321.2418  28.5226 12.48528929  4074
Epoch: 2025-12-03T19:02Z
TLE epoch observation values (Epoch: 2025-12-03T19:02:17.064Z)
Latitude
-0.00001°
Longitude
146.19093°
Altitude
442.772 km
Speed
8.132 km/s
True Right ascension
09h 38m 29s
True Declination
0° 00' 00"
Sunlit
Object was in daylight at epoch
Visualization orbit readout
Latitude
Unknown
Longitude
Unknown
Altitude
Unknown
Speed
Unknown
Apparent Right ascension
Unknown
Apparent Declination
Unknown
Sunlit
N/A
Visualization observer readout
Local Sidereal Time
13:25:40
Azimuth
Unknown
Elevation
Unknown
Doppler factor
Unknown
Orbital elements
Apogee altitude
2,705.903 km
Perigee altitude
243.011 km
Semi-major axis
7,852.594 km
Eccentricity
0.15682
Inclination
28.8033°
RAAN
144.621°
Arg. of periapsis
321.2418°
True anomaly
38.81392°
Mean anomaly
28.5226°
Eccentric anomaly
33.4791°
Mean motion
3.11906 °/min
Orbital period
115.42 mins
BSTAR
0.028985
Loading maneuver chart data...
Computing Atmospheric mass density...
Loading historical data...
Loading historical data...
Loading historical data...
Loading historical data...
Loading historical data...
Loading historical data...
Loading historical data...
Other satellites on launch #3 in the year 2002 (2002-02-04 UTC)

Documentation

Showing up to 5 results
|